This is the latest recevied weather packets stored in our database for station/object N9WHM. If no packets are shown the sender has not sent any weather packets the latest 10 day(s).
| Time | Temp. | Humidity | Pressure | Rain* | Wind** | Luminosity | Snow |
|---|---|---|---|---|---|---|---|
| 1777500767 | 15.56° C | 39% | 1017.3 hPa | 0 mm | - | 179 W/m² | - |
| 1777500464 | 16.11° C | 37% | 1017.4 hPa | 0 mm | - | 198 W/m² | - |
| 1777500160 | 16.11° C | 37% | 1017.4 hPa | 0 mm | - | 565 W/m² | - |
| 1777499858 | 15.56° C | 38% | 1017.5 hPa | 0 mm | - | 277 W/m² | - |
| 1777499553 | 15.56° C | 36% | 1017.5 hPa | 0 mm | - | 200 W/m² | - |
| 1777499251 | 15° C | 35% | 1017.4 hPa | 0 mm | - | 175 W/m² | - |
| 1777498948 | 15.56° C | 39% | 1017.4 hPa | 0 mm | - | 143 W/m² | - |
| 1777498645 | 15.56° C | 36% | 1017.5 hPa | 0 mm | - | 194 W/m² | - |
| 1777498340 | 16.11° C | 36% | 1017.7 hPa | 0 mm | - | 438 W/m² | - |
| 1777498039 | 15.56° C | 35% | 1017.9 hPa | 0 mm | - | 267 W/m² | - |
| 1777497735 | 15.56° C | 36% | 1018.1 hPa | 0 mm | - | 296 W/m² | - |
| 1777497432 | 15.56° C | 36% | 1017.9 hPa | 0 mm | - | 485 W/m² | - |
| 1777497128 | 15° C | 35% | 1018.2 hPa | 0 mm | - | 181 W/m² | - |
| 1777496825 | 15.56° C | 37% | 1017.9 hPa | 0 mm | - | 165 W/m² | - |
| 1777496522 | 15.56° C | 38% | 1018 hPa | 0 mm | - | 182 W/m² | - |
| 1777496218 | 15.56° C | 36% | 1018.2 hPa | 0 mm | - | 166 W/m² | - |
| 1777495914 | 15.56° C | 37% | 1018.2 hPa | 0 mm | - | 180 W/m² | - |
| 1777495610 | 15.56° C | 38% | 1018.5 hPa | 0 mm | - | 225 W/m² | - |
| 1777495305 | 15.56° C | 35% | 1018.4 hPa | 0 mm | - | 266 W/m² | - |
| 1777495004 | 15.56° C | 35% | 1018.8 hPa | 0 mm | - | 362 W/m² | - |
| 1777494701 | 15.56° C | 36% | 1018.8 hPa | 0 mm | - | 219 W/m² | - |
| 1777494398 | 15.56° C | 37% | 1018.7 hPa | 0 mm | - | 768 W/m² | - |
| 1777494094 | 15° C | 36% | 1018.8 hPa | 0 mm | - | 219 W/m² | - |
| 1777493792 | 15° C | 37% | 1018.6 hPa | 0 mm | - | 808 W/m² | - |
| 1777493489 | 15° C | 36% | 1018.7 hPa | 0 mm | - | 247 W/m² | - |
* Rain latest hour (hover to see other rain measurements)
** Current wind speed in m/s (hover to see current wind gust speed)